Weather in Koydan

Russia / Karachay-Cherkess Republic     44°06′22″N   42°09′23″E
temp.,
°C
wind,
m/s
gust,
m/s
humid.,
%
clouds,
%
prec.,
mm/h
press.,
hPa
HPBL,
m
11 april, sun
sun1100:00+1nne1199100 0.0 1019114
03:00+2ne1198100 0.0 101996
06:00+2ene119797 0.0 1019105
09:00+4ne2190100 0.0 1018373
12:00+5nne3287100 0.1 1017501
15:00+6ne2283100 0.3 1017587
18:00+5ne2292100 1.5 1017243
21:00+5ene1193100 1.5 101777
12 april, mon
mon1200:00+4nnw1195100 0.0 101711
03:00+4wsw229687 0.0 101872
06:00+4wnw2398100 0.1 1019182
09:00+4nw2297100 0.1 1020319
12:00+4nnw2297100 0.1 1021390
15:00+4n1196100 0.1 1022384
18:00+4nne1196100 0.0 1022181
21:00+4nnw1197100 0.1 1022111
13 april, tue
tue1300:00+4nw2298100 0.1 1021154
03:00+4nnw1297100 0.9 1021121
06:00+4w1195100 0.3 1022101
09:00+5wnw2291100 0.4 1022360
12:00+5n3394100 0.3 1022573
15:00+4n1197100 1.4 1023610
18:00+4wnw1295100 1.1 1023448
21:00+4w0195100 1.1 1023198
14 april, wed
wed1400:00+4nw1196100 0.2 1021115
03:00+3nw1198100 2.3 1020458
06:00+3w2398100 1.9 1020464
09:00+4w2495100 2.6 1020621
12:00+5nw2388100 0.1 1019508
15:00+7nw337897 0.1 1018727
18:00+6nnw1191100 0.0 1019217
21:00+4sw2292100 0.0 101914
15 april, thu
thu1500:00+4sse218436 0.0 101810
03:00+4s227924 0.0 101810
06:00+4sse22730 0.0 101812
09:00+11n11540 0.0 1016501
12:00+14n33450 0.0 10151229
15:00+14n434650 0.0 10151468
18:00+11ne24659 0.0 1016180
21:00+9se2272100 0.0 101714